Kuchera_Ratio
0.0 0.0 0.0 0.0 0.0 0.0 0.0 0.0 4.0 9.9 8.1 3.5 1.8 0.0 0.0 0.0 0.0 0.0 0.0 0.0 0.0 0.0 0.0 0.0 0.0 0.0 0.0 0.0 0.0 0.0 0.0 0.0 0.0 0.0 0.0 0.0 0.0 0.0
0.0 0.0 0.0 0.0 0.0 0.0 0.0 0.0 0.2 5.1 10.5 2.8 2.5 1.9 0.0 0.0 0.0 0.0 0.0 0.0 0.0 0.0 0.0 0.0 0.0 0.0 0.0 0.0 0.0 0.0 0.0 0.0 0.0 0.0 0.0 0.0 0.0 0.0
0.0 0.0 0.0 0.0 0.0 0.0 0.0 0.5 1.3 2.7 8.7 4.3 2.2 1.1 3.2 3.2 0.0 0.0 0.0 0.0 0.0 0.0 0.0 0.0 0.0 0.0 0.0 0.0 0.0 0.0 0.0 0.0 0.0 0.0 0.0 0.0 0.0 0.0
0.0 0.0 0.0 0.0 0.0 0.7 1.3 2.0 2.9 3.2 6.1 9.3 5.2 4.5 5.6 3.0 1.6 1.9 0.0 0.0 0.0 0.0 0.0 0.0 0.0 0.0 0.0 0.0 0.0 0.0 0.0 0.0 0.0 0.0 0.0 0.0 0.0 0.0
0.0 0.0 0.0 0.2 1.3 2.1 2.8 4.4 5.7 2.5 6.3 8.0 8.3 5.1 4.9 4.0 4.6 2.9 2.7 1.6 0.0 0.0 0.0 0.0 0.0 0.0 0.0 0.0 0.0 0.0 0.0 0.0 0.0 0.0 0.0 0.0 0.0 0.0
0.0 0.0 0.0 0.5 1.5 2.9 4.4 5.1 5.3 7.0 7.9 8.7 9.2 9.8 8.1 5.7 6.6 8.4 8.1 5.8 5.1 0.0 0.0 0.0 0.0 0.0 0.0 0.0 0.0 0.0 0.0 0.0 0.0 0.0 0.0 0.0 0.0 0.0
0.8 0.2 0.5 0.0 0.0 0.0 0.0 4.5 5.7 8.0 9.2 10.3 10.8 9.4 8.5 9.2 10.5 7.8 9.6 8.4 7.4 6.3 7.0 5.7 4.9 4.4 3.9 0.0 0.0 0.0 0.0 0.0 0.0 0.0 0.0 0.0 0.0 0.0
3.3 2.2 2.4 0.0 0.0 0.0 0.0 0.0 0.0 4.6 8.3 10.4 10.8 11.6 11.6 10.2 8.0 10.0 11.2 13.1 13.7 5.4 10.9 9.3 6.3 7.9 6.1 4.2 0.0 0.0 0.0 0.0 0.0 0.0 0.0 0.0 0.0 0.0
3.7 3.1 3.4 0.0 0.3 4.7 0.4 0.0 0.0 0.0 0.0 4.3 9.4 9.7 9.5 8.2 11.0 12.4 12.1 12.0 11.9 8.8 10.1 12.7 7.9 9.8 6.3 3.1 0.1 0.0 0.0 0.0 0.0 0.0 0.0 0.0 0.0 0.0
4.5 4.3 4.2 4.6 4.9 1.4 3.8 6.3 7.7 8.9 6.6 4.0 5.5 6.0 6.6 5.7 5.0 7.8 8.9 10.7 10.1 8.9 9.0 14.3 10.0 11.6 8.2 7.0 1.2 0.4 0.0 0.0 0.0 0.0 0.0 0.0 0.0 0.0
4.6 5.4 4.1 6.0 0.0 0.0 3.6 8.2 8.6 8.7 1.3 0.0 0.0 0.0 0.0 0.0 0.2 5.7 12.5 13.6 14.0 12.4 9.5 12.7 12.8 12.9 12.2 11.3 8.0 1.6 0.0 0.0 0.0 0.0 0.0 0.0 0.0 0.0
8.4 6.3 0.3 0.7 0.0 0.0 3.4 6.0 10.8 10.9 10.3 10.5 8.0 7.6 5.6 8.5 2.4 8.6 11.3 14.1 14.4 15.1 12.4 14.3 14.1 13.7 15.5 12.2 12.4 8.9 8.7 3.4 1.0 0.0 0.0 0.0 0.0 0.0
9.5 9.2 7.8 0.0 0.0 0.0 0.0 7.8 9.2 4.9 5.5 10.3 11.3 10.9 10.3 10.6 10.0 9.9 9.2 12.5 14.5 15.2 11.5 12.1 14.3 14.3 14.7 15.4 13.1 11.2 10.0 9.3 8.3 5.9 1.8 0.0 0.0 0.0
9.4 9.4 8.7 0.8 0.2 0.6 2.6 1.9 1.5 2.5 10.9 12.1 12.6 13.1 13.3 13.2 12.6 12.2 11.9 12.4 12.0 13.1 11.8 12.1 14.0 14.5 15.2 15.7 15.5 12.0 10.7 9.8 9.3 7.8 6.0 1.7 0.0 0.0
6.8 4.0 1.7 2.0 2.8 5.5 4.0 2.7 3.8 12.3 12.7 13.7 14.2 14.0 13.6 13.3 13.1 13.3 13.0 12.7 13.3 12.5 11.4 12.3 13.3 13.7 14.0 14.8 14.9 13.7 12.6 10.3 7.9 9.2 6.6 5.6 5.4 3.6
6.1 11.1 5.9 5.4 4.6 6.1 8.8 10.2 12.1 12.3 12.6 13.5 14.2 13.6 13.2 13.8 14.5 14.0 14.5 14.3 14.8 14.4 12.3 12.0 12.8 12.6 13.7 13.3 13.1 13.4 12.0 12.8 8.2 6.6 5.5 5.9 4.4 3.6
5.7 12.0 13.1 13.5 13.7 13.2 13.0 12.9 12.8 12.9 13.9 13.9 14.5 14.5 14.4 14.6 14.7 14.3 14.7 14.7 15.4 15.5 14.6 12.8 10.2 9.3 10.6 12.4 13.5 12.3 11.7 10.2 7.7 7.7 7.0 8.4 6.0 5.1
11.9 14.3 14.7 14.6 14.8 14.4 14.4 14.4 14.0 13.8 14.2 14.4 14.7 14.9 15.3 15.4 15.6 14.8 14.1 15.4 16.0 15.3 14.9 13.5 12.8 12.9 12.3 9.5 3.9 10.9 9.8 10.5 9.4 7.3 7.6 10.3 8.4 4.7
14.7 15.4 15.5 15.3 15.3 15.1 15.3 15.6 15.9 14.9 14.6 15.2 15.4 15.6 15.6 15.5 14.7 15.6 15.3 15.4 15.6 15.0 14.3 13.5 13.1 13.6 14.9 15.3 8.4 0.6 10.6 10.2 9.2 9.2 7.1 7.5 9.2 6.5
15.3 15.9 16.0 15.5 15.4 15.7 15.7 15.7 15.5 15.2 15.2 15.5 15.5 15.1 15.3 15.8 16.0 15.9 15.4 15.7 15.3 14.4 13.8 12.9 12.8 12.8 13.5 13.6 13.4 9.7 3.3 8.0 9.5 9.9 8.7 5.7 4.4 0.6
15.6 15.7 15.3 15.5 15.6 15.3 15.3 15.4 15.4 15.5 14.7 14.8 15.4 15.3 15.2 15.3 15.8 15.4 15.3 12.9 12.5 13.8 14.4 13.7 11.6 3.6 8.8 9.5 12.6 11.2 6.6 1.6 3.2 7.6 8.1 9.3 9.2 7.6
15.4 15.7 15.4 15.3 15.3 15.5 15.6 15.6 15.6 15.5 15.7 15.5 15.3 15.2 14.9 14.9 15.4 15.3 14.9 15.0 14.3 13.3 13.1 12.0 8.3 9.0 11.7 12.5 13.2 12.5 10.4 6.7 2.8 1.6 1.2 3.7 8.6 11.0
15.9 15.6 15.7 15.5 15.4 15.6 15.5 15.7 16.0 15.8 15.4 15.4 15.4 15.1 14.8 15.0 14.4 14.4 14.4 13.7 13.2 12.9 11.6 12.2 10.8 10.0 12.3 12.5 11.3 11.6 11.3 10.5 8.9 8.5 6.7 0.0 0.0 2.3